Location: Gellin
(53.4498°N, 14.3207°E)
Time: 23:28:34
(UTC+00:00)

Cosmos 1500 - Pass Details

Date: 03 March 2021
Orbit: 499 x 517 km, 82.5° (Epoch: 12 April)

Event Time Altitude Azimuth Distance (km) Brightness Sun altitude
Rises 18:48:57 0° 206° (SSW) 2,584 6.9 -19.2°
Reaches altitude 10° 18:51:07 10° 213° (SSW) 1,704 6.0 -19.5°
Maximum altitude 18:54:42 44° 286° (WNW) 707 4.3 -20.0°
Drops below altitude 10° 18:58:19 10° 0° (N) 1,720 6.0 -20.5°
Sets 19:00:31 0° 7° (N) 2,611 6.9 -20.8°
